Year,Month,Day,Hour,Minute,Value (Times are PST for barometer in hPa)
2016,10,15,00,00,996.65
2016,10,15,00,01,996.68
2016,10,15,00,02,996.72
2016,10,15,00,03,996.68
2016,10,15,00,04,996.75
2016,10,15,00,05,996.78
2016,10,15,00,06,996.78
2016,10,15,00,07,996.75
2016,10,15,00,08,996.75
2016,10,15,00,09,996.75
2016,10,15,00,10,996.78
2016,10,15,00,11,996.78
2016,10,15,00,12,996.78
2016,10,15,00,13,996.82
2016,10,15,00,14,996.89
2016,10,15,00,15,996.85
2016,10,15,00,16,996.89
2016,10,15,00,17,996.89
2016,10,15,00,18,996.89
2016,10,15,00,19,996.89
2016,10,15,00,20,996.92
2016,10,15,00,21,996.92
2016,10,15,00,22,996.89
2016,10,15,00,23,996.95
2016,10,15,00,24,996.95
2016,10,15,00,25,996.95
2016,10,15,00,26,996.99
2016,10,15,00,27,997.02
2016,10,15,00,28,996.99
2016,10,15,00,29,997.02
2016,10,15,00,30,997.03
2016,10,15,00,31,997.09
2016,10,15,00,32,997.05
2016,10,15,00,33,997.02
2016,10,15,00,34,997.05
2016,10,15,00,35,997.09
2016,10,15,00,36,997.09
2016,10,15,00,37,997.05
2016,10,15,00,38,997.09
2016,10,15,00,39,997.12
2016,10,15,00,40,997.09
2016,10,15,00,41,997.12
2016,10,15,00,42,997.09
2016,10,15,00,43,997.12
2016,10,15,00,44,997.12
2016,10,15,00,45,997.16
2016,10,15,00,46,997.12
2016,10,15,00,47,997.19
2016,10,15,00,48,997.16
2016,10,15,00,49,997.16
2016,10,15,00,50,997.19
2016,10,15,00,51,997.19
2016,10,15,00,52,997.22
2016,10,15,00,53,997.26
2016,10,15,00,54,997.20
2016,10,15,00,55,997.26
2016,10,15,00,56,997.29
2016,10,15,00,57,997.29
2016,10,15,00,58,997.29
2016,10,15,00,59,997.33
2016,10,15,01,00,997.33
2016,10,15,01,01,997.33
2016,10,15,01,02,997.36
2016,10,15,01,03,997.39
2016,10,15,01,04,997.39
2016,10,15,01,05,997.33
2016,10,15,01,06,997.36
2016,10,15,01,07,997.33
2016,10,15,01,08,997.33
2016,10,15,01,09,997.39
2016,10,15,01,10,997.40
2016,10,15,01,11,997.46
2016,10,15,01,12,997.46
2016,10,15,01,13,997.43
2016,10,15,01,14,997.43
2016,10,15,01,15,997.39
2016,10,15,01,16,997.43
2016,10,15,01,17,997.46
2016,10,15,01,18,997.43
2016,10,15,01,19,997.46
2016,10,15,01,20,997.46
2016,10,15,01,21,997.43
2016,10,15,01,22,997.47
2016,10,15,01,23,997.53
2016,10,15,01,24,997.50
2016,10,15,01,25,997.50
2016,10,15,01,26,997.50
2016,10,15,01,27,997.50
2016,10,15,01,28,997.53
2016,10,15,01,29,997.53
2016,10,15,01,30,997.56
2016,10,15,01,31,997.56
2016,10,15,01,32,997.53
2016,10,15,01,33,997.53
2016,10,15,01,34,997.53
2016,10,15,01,35,997.56
2016,10,15,01,36,997.60
2016,10,15,01,37,997.56
2016,10,15,01,38,997.53
2016,10,15,01,39,997.56
2016,10,15,01,40,997.56
2016,10,15,01,41,997.50
2016,10,15,01,42,997.50
2016,10,15,01,43,997.53
2016,10,15,01,44,997.56
2016,10,15,01,45,997.60
2016,10,15,01,46,997.60
2016,10,15,01,47,997.66
2016,10,15,01,48,997.63
2016,10,15,01,49,997.63
2016,10,15,01,50,997.63
2016,10,15,01,51,997.66
2016,10,15,01,52,997.66
2016,10,15,01,53,997.70
2016,10,15,01,54,997.70
2016,10,15,01,55,997.73
2016,10,15,01,56,997.70
2016,10,15,01,57,997.73
2016,10,15,01,58,997.70
2016,10,15,01,59,997.73
2016,10,15,02,00,997.73
2016,10,15,02,01,997.77
2016,10,15,02,02,997.77
2016,10,15,02,03,997.73
2016,10,15,02,04,997.80
2016,10,15,02,05,997.77
2016,10,15,02,06,997.80
2016,10,15,02,07,997.80
2016,10,15,02,08,997.77
2016,10,15,02,09,997.77
2016,10,15,02,10,997.80
2016,10,15,02,11,997.80
2016,10,15,02,12,997.80
2016,10,15,02,13,997.80
2016,10,15,02,14,997.83
2016,10,15,02,15,997.83
2016,10,15,02,16,997.83
2016,10,15,02,17,997.87
2016,10,15,02,18,997.90
2016,10,15,02,19,997.94
2016,10,15,02,20,997.94
2016,10,15,02,21,997.94
2016,10,15,02,22,997.94
2016,10,15,02,23,997.97
2016,10,15,02,24,997.97
2016,10,15,02,25,997.97
2016,10,15,02,26,998.00
2016,10,15,02,27,997.97
2016,10,15,02,28,998.04
2016,10,15,02,29,998.00
2016,10,15,02,30,998.00
2016,10,15,02,31,998.04
2016,10,15,02,32,998.00
2016,10,15,02,33,998.00
2016,10,15,02,34,998.00
2016,10,15,02,35,998.00
2016,10,15,02,36,998.00
2016,10,15,02,37,997.97
2016,10,15,02,38,997.97
2016,10,15,02,39,997.97
2016,10,15,02,40,997.97
2016,10,15,02,41,997.97
2016,10,15,02,42,997.97
2016,10,15,02,43,998.00
2016,10,15,02,44,998.00
2016,10,15,02,45,998.00
2016,10,15,02,46,998.04
2016,10,15,02,47,998.00
2016,10,15,02,48,998.00
2016,10,15,02,49,998.00
2016,10,15,02,50,998.00
2016,10,15,02,51,998.00
2016,10,15,02,52,998.00
2016,10,15,02,53,998.00
2016,10,15,02,54,998.00
2016,10,15,02,55,998.04
2016,10,15,02,56,998.00
2016,10,15,02,57,997.97
2016,10,15,02,58,998.00
2016,10,15,02,59,998.00
2016,10,15,03,00,998.00
2016,10,15,03,01,997.94
2016,10,15,03,02,997.94
2016,10,15,03,03,997.90
2016,10,15,03,04,997.94
2016,10,15,03,05,997.97
2016,10,15,03,06,997.97
2016,10,15,03,07,997.94
2016,10,15,03,08,997.94
2016,10,15,03,09,997.97
2016,10,15,03,10,997.97
2016,10,15,03,11,997.97
2016,10,15,03,12,998.00
2016,10,15,03,13,997.94
2016,10,15,03,14,997.97
2016,10,15,03,15,997.94
2016,10,15,03,16,997.94
2016,10,15,03,17,997.97
2016,10,15,03,18,997.97
2016,10,15,03,19,997.97
2016,10,15,03,20,998.00
2016,10,15,03,21,998.00
2016,10,15,03,22,997.97
2016,10,15,03,23,997.97
2016,10,15,03,24,997.97
2016,10,15,03,25,998.00
2016,10,15,03,26,997.97
2016,10,15,03,27,997.94
2016,10,15,03,28,997.97
2016,10,15,03,29,997.94
2016,10,15,03,30,997.97
2016,10,15,03,31,997.97
2016,10,15,03,32,997.97
2016,10,15,03,33,997.90
2016,10,15,03,34,997.94
2016,10,15,03,35,997.97
2016,10,15,03,36,997.94
2016,10,15,03,37,997.90
2016,10,15,03,38,997.87
2016,10,15,03,39,997.83
2016,10,15,03,40,997.83
2016,10,15,03,41,997.83
2016,10,15,03,42,997.87
2016,10,15,03,43,997.83
2016,10,15,03,44,997.80
2016,10,15,03,45,997.87
2016,10,15,03,46,997.83
2016,10,15,03,47,997.83
2016,10,15,03,48,997.87
2016,10,15,03,49,997.87
2016,10,15,03,50,997.90
2016,10,15,03,51,997.87
2016,10,15,03,52,997.87
2016,10,15,03,53,997.83
2016,10,15,03,54,997.83
2016,10,15,03,55,997.83
2016,10,15,03,56,997.87
2016,10,15,03,57,997.83
2016,10,15,03,58,997.83
2016,10,15,03,59,997.80
2016,10,15,04,00,997.77
2016,10,15,04,01,997.73
2016,10,15,04,02,997.73
2016,10,15,04,03,997.73
2016,10,15,04,04,997.70
2016,10,15,04,05,997.70
2016,10,15,04,06,997.70
2016,10,15,04,07,997.73
2016,10,15,04,08,997.70
2016,10,15,04,09,997.63
2016,10,15,04,10,997.66
2016,10,15,04,11,997.66
2016,10,15,04,12,997.60
2016,10,15,04,13,997.60
2016,10,15,04,14,997.60
2016,10,15,04,15,997.63
2016,10,15,04,16,997.60
2016,10,15,04,17,997.56
2016,10,15,04,18,997.56
2016,10,15,04,19,997.53
2016,10,15,04,20,997.56
2016,10,15,04,21,997.53
2016,10,15,04,22,997.56
2016,10,15,04,23,997.53
2016,10,15,04,24,997.56
2016,10,15,04,25,997.53
2016,10,15,04,26,997.50
2016,10,15,04,27,997.50
2016,10,15,04,28,997.50
2016,10,15,04,29,997.46
2016,10,15,04,30,997.43
2016,10,15,04,31,997.43
2016,10,15,04,32,997.46
2016,10,15,04,33,997.46
2016,10,15,04,34,997.43
2016,10,15,04,35,997.43
2016,10,15,04,36,997.46
2016,10,15,04,37,997.46
2016,10,15,04,38,997.46
2016,10,15,04,39,997.43
2016,10,15,04,40,997.46
2016,10,15,04,41,997.43
2016,10,15,04,42,997.39
2016,10,15,04,43,997.39
2016,10,15,04,44,997.39
2016,10,15,04,45,997.39
2016,10,15,04,46,997.33
2016,10,15,04,47,997.33
2016,10,15,04,48,997.26
2016,10,15,04,49,997.26
2016,10,15,04,50,997.22
2016,10,15,04,51,997.26
2016,10,15,04,52,997.26
2016,10,15,04,53,997.29
2016,10,15,04,54,997.29
2016,10,15,04,55,997.29
2016,10,15,04,56,997.29
2016,10,15,04,57,997.29
2016,10,15,04,58,997.26
2016,10,15,04,59,997.19
2016,10,15,05,00,997.19
2016,10,15,05,01,997.22
2016,10,15,05,02,997.19
2016,10,15,05,03,997.19
2016,10,15,05,04,997.16
2016,10,15,05,05,997.16
2016,10,15,05,06,997.12
2016,10,15,05,07,997.16
2016,10,15,05,08,997.16
2016,10,15,05,09,997.12
2016,10,15,05,10,997.16
2016,10,15,05,11,997.12
2016,10,15,05,12,997.16
2016,10,15,05,13,997.12
2016,10,15,05,14,997.12
2016,10,15,05,15,997.16
2016,10,15,05,16,997.16
2016,10,15,05,17,997.16
2016,10,15,05,18,997.16
2016,10,15,05,19,997.16
2016,10,15,05,20,997.18
2016,10,15,05,21,997.12
2016,10,15,05,22,997.16
2016,10,15,05,23,997.09
2016,10,15,05,24,997.12
2016,10,15,05,25,997.12
2016,10,15,05,26,997.16
2016,10,15,05,27,997.16
2016,10,15,05,28,997.16
2016,10,15,05,29,997.16
2016,10,15,05,30,997.12
2016,10,15,05,31,997.16
2016,10,15,05,32,997.16
2016,10,15,05,33,997.19
2016,10,15,05,34,997.16
2016,10,15,05,35,997.19
2016,10,15,05,36,997.26
2016,10,15,05,37,997.26
2016,10,15,05,38,997.29
2016,10,15,05,39,997.29
2016,10,15,05,40,997.26
2016,10,15,05,41,997.22
2016,10,15,05,42,997.26
2016,10,15,05,43,997.33
2016,10,15,05,44,997.26
2016,10,15,05,45,997.29
2016,10,15,05,46,997.26
2016,10,15,05,47,997.22
2016,10,15,05,48,997.22
2016,10,15,05,49,997.26
2016,10,15,05,50,997.22
2016,10,15,05,51,997.12
2016,10,15,05,52,997.16
2016,10,15,05,53,997.19
2016,10,15,05,54,997.19
2016,10,15,05,55,997.19
2016,10,15,05,56,997.16
2016,10,15,05,57,997.16
2016,10,15,05,58,997.19
2016,10,15,05,59,997.16
2016,10,15,06,00,997.16
2016,10,15,06,01,997.12
2016,10,15,06,02,997.12
2016,10,15,06,03,997.12
2016,10,15,06,04,997.09
2016,10,15,06,05,997.05
2016,10,15,06,06,996.99
2016,10,15,06,07,996.99
2016,10,15,06,08,996.99
2016,10,15,06,09,996.95
2016,10,15,06,10,996.99
2016,10,15,06,11,996.99
2016,10,15,06,12,996.95
2016,10,15,06,13,996.92
2016,10,15,06,14,996.95
2016,10,15,06,15,996.95
2016,10,15,06,16,996.95
2016,10,15,06,17,996.89
2016,10,15,06,18,996.89
2016,10,15,06,19,996.92
2016,10,15,06,20,996.92
2016,10,15,06,21,996.92
2016,10,15,06,22,996.89
2016,10,15,06,23,996.89
2016,10,15,06,24,996.89
2016,10,15,06,25,996.85
2016,10,15,06,26,996.85
2016,10,15,06,27,996.85
2016,10,15,06,28,996.89
2016,10,15,06,29,996.89
2016,10,15,06,30,996.85
2016,10,15,06,31,996.85
2016,10,15,06,32,996.85
2016,10,15,06,33,996.82
2016,10,15,06,34,996.78
2016,10,15,06,35,996.78
2016,10,15,06,36,996.78
2016,10,15,06,37,996.75
2016,10,15,06,38,996.78
2016,10,15,06,39,996.72
2016,10,15,06,40,996.75
2016,10,15,06,41,996.75
2016,10,15,06,42,996.78
2016,10,15,06,43,996.68
2016,10,15,06,44,996.72
2016,10,15,06,45,996.75
2016,10,15,06,46,996.75
2016,10,15,06,47,996.72
2016,10,15,06,48,996.68
2016,10,15,06,49,996.65
2016,10,15,06,50,996.65
2016,10,15,06,51,996.65
2016,10,15,06,52,996.65
2016,10,15,06,53,996.61
2016,10,15,06,54,996.65
2016,10,15,06,55,996.61
2016,10,15,06,56,996.61
2016,10,15,06,57,996.61
2016,10,15,06,58,996.65
2016,10,15,06,59,996.65
2016,10,15,07,00,996.65
2016,10,15,07,01,996.61
2016,10,15,07,02,996.58
2016,10,15,07,03,996.48
2016,10,15,07,04,996.58
2016,10,15,07,05,996.51
2016,10,15,07,06,996.48
2016,10,15,07,07,996.48
2016,10,15,07,08,996.45
2016,10,15,07,09,996.41
2016,10,15,07,10,996.34
2016,10,15,07,11,996.34
2016,10,15,07,12,996.34
2016,10,15,07,13,996.31
2016,10,15,07,14,996.31
2016,10,15,07,15,996.24
2016,10,15,07,16,996.24
2016,10,15,07,17,996.21
2016,10,15,07,18,996.24
2016,10,15,07,19,996.24
2016,10,15,07,20,996.28
2016,10,15,07,21,996.24
2016,10,15,07,22,996.24
2016,10,15,07,23,996.24
2016,10,15,07,24,996.28
2016,10,15,07,25,996.24
2016,10,15,07,26,996.21
2016,10,15,07,27,996.28
2016,10,15,07,28,996.24
2016,10,15,07,29,996.28
2016,10,15,07,30,996.24
2016,10,15,07,31,996.21
2016,10,15,07,32,996.17
2016,10,15,07,33,996.21
2016,10,15,07,34,996.21
2016,10,15,07,35,996.21
2016,10,15,07,36,996.11
2016,10,15,07,37,996.11
2016,10,15,07,38,996.07
2016,10,15,07,39,996.07
2016,10,15,07,40,996.01
2016,10,15,07,41,995.97
2016,10,15,07,42,996.01
2016,10,15,07,43,995.94
2016,10,15,07,44,995.97
2016,10,15,07,45,995.97
2016,10,15,07,46,995.90
2016,10,15,07,47,995.87
2016,10,15,07,48,995.90
2016,10,15,07,49,995.87
2016,10,15,07,50,995.90
2016,10,15,07,51,995.87
2016,10,15,07,52,995.87
2016,10,15,07,53,995.90
2016,10,15,07,54,995.87
2016,10,15,07,55,995.87
2016,10,15,07,56,995.87
2016,10,15,07,57,995.84
2016,10,15,07,58,995.80
2016,10,15,07,59,995.77
2016,10,15,08,00,995.80
2016,10,15,08,01,995.77
2016,10,15,08,02,995.80
2016,10,15,08,03,995.77
2016,10,15,08,04,995.73
2016,10,15,08,05,995.70
2016,10,15,08,06,995.67
2016,10,15,08,07,995.63
2016,10,15,08,08,995.63
2016,10,15,08,09,995.60
2016,10,15,08,10,995.63
2016,10,15,08,11,995.67
2016,10,15,08,12,995.63
2016,10,15,08,13,995.63
2016,10,15,08,14,995.63
2016,10,15,08,15,995.63
2016,10,15,08,16,995.60
2016,10,15,08,17,995.63
2016,10,15,08,18,995.63
2016,10,15,08,19,995.60
2016,10,15,08,20,995.63
2016,10,15,08,21,995.63
2016,10,15,08,22,995.56
2016,10,15,08,23,995.63
2016,10,15,08,24,995.63
2016,10,15,08,25,995.67
2016,10,15,08,26,995.63
2016,10,15,08,27,995.63
2016,10,15,08,28,995.60
2016,10,15,08,29,995.60
2016,10,15,08,30,995.67
2016,10,15,08,31,995.63
2016,10,15,08,32,995.63
2016,10,15,08,33,995.60
2016,10,15,08,34,995.60
2016,10,15,08,35,995.53
2016,10,15,08,36,995.43
2016,10,15,08,37,995.43
2016,10,15,08,38,995.36
2016,10,15,08,39,995.33
2016,10,15,08,40,995.33
2016,10,15,08,41,995.33
2016,10,15,08,42,995.29
2016,10,15,08,43,995.26
2016,10,15,08,44,995.29
2016,10,15,08,45,995.26
2016,10,15,08,46,995.29
2016,10,15,08,47,995.26
2016,10,15,08,48,995.29
2016,10,15,08,49,995.29
2016,10,15,08,50,995.29
2016,10,15,08,51,995.29
2016,10,15,08,52,995.26
2016,10,15,08,53,995.29
2016,10,15,08,54,995.26
2016,10,15,08,55,995.29
2016,10,15,08,56,995.33
2016,10,15,08,57,995.29
2016,10,15,08,58,995.29
2016,10,15,08,59,995.29
2016,10,15,09,00,995.26
2016,10,15,09,01,995.23
2016,10,15,09,02,995.23
2016,10,15,09,03,995.16
2016,10,15,09,04,995.12
2016,10,15,09,05,995.02
2016,10,15,09,06,995.02
2016,10,15,09,07,995.02
2016,10,15,09,08,994.99
2016,10,15,09,09,994.99
2016,10,15,09,10,994.96
2016,10,15,09,11,994.92
2016,10,15,09,12,994.92
2016,10,15,09,13,994.89
2016,10,15,09,14,994.89
2016,10,15,09,15,994.89
2016,10,15,09,16,994.89
2016,10,15,09,17,994.89
2016,10,15,09,18,994.85
2016,10,15,09,19,994.85
2016,10,15,09,20,994.82
2016,10,15,09,21,994.82
2016,10,15,09,22,994.85
2016,10,15,09,23,994.89
2016,10,15,09,24,994.85
2016,10,15,09,25,994.82
2016,10,15,09,26,994.79
2016,10,15,09,27,994.79
2016,10,15,09,28,994.82
2016,10,15,09,29,994.82
2016,10,15,09,30,994.79
2016,10,15,09,31,994.82
2016,10,15,09,32,994.82
2016,10,15,09,33,994.79
2016,10,15,09,34,994.79
2016,10,15,09,35,994.79
2016,10,15,09,36,994.72
2016,10,15,09,37,994.68
2016,10,15,09,38,994.68
2016,10,15,09,39,994.65
2016,10,15,09,40,994.62
2016,10,15,09,41,994.65
2016,10,15,09,42,994.62
2016,10,15,09,43,994.58
2016,10,15,09,44,994.58
2016,10,15,09,45,994.58
2016,10,15,09,46,994.45
2016,10,15,09,47,994.48
2016,10,15,09,48,994.48
2016,10,15,09,49,994.48
2016,10,15,09,50,994.58
2016,10,15,09,51,994.58
2016,10,15,09,52,994.52
2016,10,15,09,53,994.48
2016,10,15,09,54,994.41
2016,10,15,09,55,994.45
2016,10,15,09,56,994.38
2016,10,15,09,57,994.35
2016,10,15,09,58,994.35
2016,10,15,09,59,994.31
2016,10,15,10,00,994.24
2016,10,15,10,01,994.18
2016,10,15,10,02,994.18
2016,10,15,10,03,994.24
2016,10,15,10,04,994.21
2016,10,15,10,05,994.14
2016,10,15,10,06,994.14
2016,10,15,10,07,994.11
2016,10,15,10,08,994.18
2016,10,15,10,09,994.04
2016,10,15,10,10,994.04
2016,10,15,10,11,994.11
2016,10,15,10,12,994.11
2016,10,15,10,13,994.18
2016,10,15,10,14,994.21
2016,10,15,10,15,994.11
2016,10,15,10,16,994.01
2016,10,15,10,17,994.01
2016,10,15,10,18,993.94
2016,10,15,10,19,993.91
2016,10,15,10,20,993.91
2016,10,15,10,21,993.87
2016,10,15,10,22,993.87
2016,10,15,10,23,993.87
2016,10,15,10,24,993.91
2016,10,15,10,25,993.77
2016,10,15,10,26,993.70
2016,10,15,10,27,993.70
2016,10,15,10,28,993.70
2016,10,15,10,29,993.67
2016,10,15,10,30,993.70
2016,10,15,10,31,993.70
2016,10,15,10,32,993.67
2016,10,15,10,33,993.70
2016,10,15,10,34,993.63
2016,10,15,10,35,993.63
2016,10,15,10,36,993.53
2016,10,15,10,37,993.43
2016,10,15,10,38,993.47
2016,10,15,10,39,993.50
2016,10,15,10,40,993.47
2016,10,15,10,41,993.40
2016,10,15,10,42,993.40
2016,10,15,10,43,993.36
2016,10,15,10,44,993.36
2016,10,15,10,45,993.33
2016,10,15,10,46,993.30
2016,10,15,10,47,993.30
2016,10,15,10,48,993.33
2016,10,15,10,49,993.33
2016,10,15,10,50,993.33
2016,10,15,10,51,993.26
2016,10,15,10,52,993.23
2016,10,15,10,53,993.26
2016,10,15,10,54,993.23
2016,10,15,10,55,993.19
2016,10,15,10,56,993.16
2016,10,15,10,57,993.13
2016,10,15,10,58,993.09
2016,10,15,10,59,993.09
2016,10,15,11,00,993.06
2016,10,15,11,01,993.06
2016,10,15,11,02,993.06
2016,10,15,11,03,992.96
2016,10,15,11,04,992.96
2016,10,15,11,05,993.03
2016,10,15,11,06,992.96
2016,10,15,11,07,992.99
2016,10,15,11,08,992.92
2016,10,15,11,09,992.96
2016,10,15,11,10,992.99
2016,10,15,11,11,992.99
2016,10,15,11,12,992.96
2016,10,15,11,13,992.89
2016,10,15,11,14,992.89
2016,10,15,11,15,992.92
2016,10,15,11,16,992.92
2016,10,15,11,17,992.86
2016,10,15,11,18,992.79
2016,10,15,11,19,992.72
2016,10,15,11,20,992.69
2016,10,15,11,21,992.72
2016,10,15,11,22,992.82
2016,10,15,11,23,992.79
2016,10,15,11,24,992.66
2016,10,15,11,25,992.55
2016,10,15,11,26,992.55
2016,10,15,11,27,992.52
2016,10,15,11,28,992.55
2016,10,15,11,29,992.52
2016,10,15,11,30,992.45
2016,10,15,11,31,992.42
2016,10,15,11,32,992.48
2016,10,15,11,33,992.38
2016,10,15,11,34,992.38
2016,10,15,11,35,992.35
2016,10,15,11,36,992.31
2016,10,15,11,37,992.28
2016,10,15,11,38,992.28
2016,10,15,11,39,992.28
2016,10,15,11,40,992.28
2016,10,15,11,41,992.14
2016,10,15,11,42,992.11
2016,10,15,11,43,992.11
2016,10,15,11,44,992.11
2016,10,15,11,45,992.08
2016,10,15,11,46,992.04
2016,10,15,11,47,992.04
2016,10,15,11,48,991.98
2016,10,15,11,49,991.98
2016,10,15,11,50,991.98
2016,10,15,11,51,991.98
2016,10,15,11,52,991.94
2016,10,15,11,53,991.87
2016,10,15,11,54,991.77
2016,10,15,11,55,991.77
2016,10,15,11,56,991.74
2016,10,15,11,57,991.70
2016,10,15,11,58,991.70
2016,10,15,11,59,991.67
2016,10,15,12,00,991.67
2016,10,15,12,01,991.67
2016,10,15,12,02,991.57
2016,10,15,12,03,991.57
2016,10,15,12,04,991.53
2016,10,15,12,05,991.53
2016,10,15,12,06,991.53
2016,10,15,12,07,991.47
2016,10,15,12,08,991.40
2016,10,15,12,09,991.37
2016,10,15,12,10,991.33
2016,10,15,12,11,991.30
2016,10,15,12,12,991.23
2016,10,15,12,13,991.23
2016,10,15,12,14,991.23
2016,10,15,12,15,991.20
2016,10,15,12,16,991.13
2016,10,15,12,17,991.13
2016,10,15,12,18,991.13
2016,10,15,12,19,991.13
2016,10,15,12,20,991.06
2016,10,15,12,21,991.06
2016,10,15,12,22,991.03
2016,10,15,12,23,990.99
2016,10,15,12,24,990.96
2016,10,15,12,25,990.96
2016,10,15,12,26,990.93
2016,10,15,12,27,990.86
2016,10,15,12,28,990.82
2016,10,15,12,29,990.76
2016,10,15,12,30,990.76
2016,10,15,12,31,990.72
2016,10,15,12,32,990.65
2016,10,15,12,33,990.62
2016,10,15,12,34,990.65
2016,10,15,12,35,990.62
2016,10,15,12,36,990.52
2016,10,15,12,37,990.42
2016,10,15,12,38,990.38
2016,10,15,12,39,990.38
2016,10,15,12,40,990.38
2016,10,15,12,41,990.32
2016,10,15,12,42,990.28
2016,10,15,12,43,990.25
2016,10,15,12,44,990.18
2016,10,15,12,45,990.15
2016,10,15,12,46,990.08
2016,10,15,12,47,990.08
2016,10,15,12,48,990.04
2016,10,15,12,49,989.94
2016,10,15,12,50,989.94
2016,10,15,12,51,989.88
2016,10,15,12,52,989.88
2016,10,15,12,53,989.81
2016,10,15,12,54,989.77
2016,10,15,12,55,989.74
2016,10,15,12,56,989.64
2016,10,15,12,57,989.57
2016,10,15,12,58,989.64
2016,10,15,12,59,989.54
2016,10,15,13,00,989.50
2016,10,15,13,01,989.50
2016,10,15,13,02,989.44
2016,10,15,13,03,989.40
2016,10,15,13,04,989.40
2016,10,15,13,05,989.33
2016,10,15,13,06,989.30
2016,10,15,13,07,989.23
2016,10,15,13,08,989.23
2016,10,15,13,09,989.10
2016,10,15,13,10,989.06
2016,10,15,13,11,989.03
2016,10,15,13,12,989.00
2016,10,15,13,13,989.00
2016,10,15,13,14,989.00
2016,10,15,13,15,988.89
2016,10,15,13,16,988.86
2016,10,15,13,17,988.86
2016,10,15,13,18,988.86
2016,10,15,13,19,988.79
2016,10,15,13,20,988.76
2016,10,15,13,21,988.72
2016,10,15,13,22,988.72
2016,10,15,13,23,988.66
2016,10,15,13,24,988.62
2016,10,15,13,25,988.62
2016,10,15,13,26,988.62
2016,10,15,13,27,988.59
2016,10,15,13,28,988.55
2016,10,15,13,29,988.55
2016,10,15,13,30,988.52
2016,10,15,13,31,988.49
2016,10,15,13,32,988.45
2016,10,15,13,33,988.39
2016,10,15,13,34,988.45
2016,10,15,13,35,988.39
2016,10,15,13,36,988.35
2016,10,15,13,37,988.35
2016,10,15,13,38,988.42
2016,10,15,13,39,988.32
2016,10,15,13,40,988.28
2016,10,15,13,41,988.28
2016,10,15,13,42,988.25
2016,10,15,13,43,988.25
2016,10,15,13,44,988.18
2016,10,15,13,45,988.22
2016,10,15,13,46,988.22
2016,10,15,13,47,988.18
2016,10,15,13,48,988.18
2016,10,15,13,49,988.15
2016,10,15,13,50,988.11
2016,10,15,13,51,988.08
2016,10,15,13,52,988.05
2016,10,15,13,53,988.01
2016,10,15,13,54,987.98
2016,10,15,13,55,987.91
2016,10,15,13,56,987.88
2016,10,15,13,57,987.88
2016,10,15,13,58,987.84
2016,10,15,13,59,987.78
2016,10,15,14,00,987.78
2016,10,15,14,01,987.74
2016,10,15,14,02,987.71
2016,10,15,14,03,987.71
2016,10,15,14,04,987.67
2016,10,15,14,05,987.64
2016,10,15,14,06,987.57
2016,10,15,14,07,987.57
2016,10,15,14,08,987.47
2016,10,15,14,09,987.47
2016,10,15,14,10,987.47
2016,10,15,14,11,987.44
2016,10,15,14,12,987.44
2016,10,15,14,13,987.44
2016,10,15,14,14,987.37
2016,10,15,14,15,987.34
2016,10,15,14,16,987.37
2016,10,15,14,17,987.37
2016,10,15,14,18,987.37
2016,10,15,14,19,987.34
2016,10,15,14,20,987.30
2016,10,15,14,21,987.27
2016,10,15,14,22,987.20
2016,10,15,14,23,987.13
2016,10,15,14,24,987.13
2016,10,15,14,25,987.17
2016,10,15,14,26,987.20
2016,10,15,14,27,987.17
2016,10,15,14,28,987.20
2016,10,15,14,29,987.10
2016,10,15,14,30,987.10
2016,10,15,14,31,987.06
2016,10,15,14,32,987.10
2016,10,15,14,33,987.03
2016,10,15,14,34,987.03
2016,10,15,14,35,986.96
2016,10,15,14,36,986.96
2016,10,15,14,37,986.90
2016,10,15,14,38,986.86
2016,10,15,14,39,986.83
2016,10,15,14,40,986.83
2016,10,15,14,41,986.83
2016,10,15,14,42,986.79
2016,10,15,14,43,986.79
2016,10,15,14,44,986.76
2016,10,15,14,45,986.73
2016,10,15,14,46,986.66
2016,10,15,14,47,986.66
2016,10,15,14,48,986.59
2016,10,15,14,49,986.56
2016,10,15,14,50,986.52
2016,10,15,14,51,986.56
2016,10,15,14,52,986.46
2016,10,15,14,53,986.49
2016,10,15,14,54,986.46
2016,10,15,14,55,986.46
2016,10,15,14,56,986.39
2016,10,15,14,57,986.39
2016,10,15,14,58,986.39
2016,10,15,14,59,986.32
2016,10,15,15,00,986.29
2016,10,15,15,01,986.25
2016,10,15,15,02,986.29
2016,10,15,15,03,986.22
2016,10,15,15,04,986.22
2016,10,15,15,05,986.18
2016,10,15,15,06,986.18
2016,10,15,15,07,986.22
2016,10,15,15,08,986.15
2016,10,15,15,09,986.15
2016,10,15,15,10,986.15
2016,10,15,15,11,986.12
2016,10,15,15,12,986.08
2016,10,15,15,13,986.08
2016,10,15,15,14,986.08
2016,10,15,15,15,986.08
2016,10,15,15,16,986.05
2016,10,15,15,17,986.02
2016,10,15,15,18,985.98
2016,10,15,15,19,985.95
2016,10,15,15,20,985.91
2016,10,15,15,21,985.88
2016,10,15,15,22,985.85
2016,10,15,15,23,985.88
2016,10,15,15,24,985.88
2016,10,15,15,25,985.88
2016,10,15,15,26,985.85
2016,10,15,15,27,985.81
2016,10,15,15,28,985.74
2016,10,15,15,29,985.74
2016,10,15,15,30,985.78
2016,10,15,15,31,985.71
2016,10,15,15,32,985.71
2016,10,15,15,33,985.64
2016,10,15,15,34,985.57
2016,10,15,15,35,985.61
2016,10,15,15,36,985.57
2016,10,15,15,37,985.61
2016,10,15,15,38,985.57
2016,10,15,15,39,985.54
2016,10,15,15,40,985.47
2016,10,15,15,41,985.47
2016,10,15,15,42,985.44
2016,10,15,15,43,985.44
2016,10,15,15,44,985.41
2016,10,15,15,45,985.44
2016,10,15,15,46,985.34
2016,10,15,15,47,985.30
2016,10,15,15,48,985.30
2016,10,15,15,49,985.27
2016,10,15,15,50,985.20
2016,10,15,15,51,985.17
2016,10,15,15,52,985.10
2016,10,15,15,53,985.03
2016,10,15,15,54,985.03
2016,10,15,15,55,985.00
2016,10,15,15,56,985.07
2016,10,15,15,57,984.97
2016,10,15,15,58,984.93
2016,10,15,15,59,984.86
2016,10,15,16,00,984.86
2016,10,15,16,01,984.80
2016,10,15,16,02,984.76
2016,10,15,16,03,984.76
2016,10,15,16,04,984.76
2016,10,15,16,05,984.69
2016,10,15,16,06,984.69
2016,10,15,16,07,984.59
2016,10,15,16,08,984.56
2016,10,15,16,09,984.53
2016,10,15,16,10,984.53
2016,10,15,16,11,984.49
2016,10,15,16,12,984.49
2016,10,15,16,13,984.49
2016,10,15,16,14,984.49
2016,10,15,16,15,984.46
2016,10,15,16,16,984.49
2016,10,15,16,17,984.39
2016,10,15,16,18,984.36
2016,10,15,16,19,984.29
2016,10,15,16,20,984.29
2016,10,15,16,21,984.22
2016,10,15,16,22,984.22
2016,10,15,16,23,984.19
2016,10,15,16,24,984.12
2016,10,15,16,25,984.12
2016,10,15,16,26,984.08
2016,10,15,16,27,984.08
2016,10,15,16,28,984.02
2016,10,15,16,29,984.02
2016,10,15,16,30,983.95
2016,10,15,16,31,983.98
2016,10,15,16,32,983.88
2016,10,15,16,33,983.81
2016,10,15,16,34,983.85
2016,10,15,16,35,983.75
2016,10,15,16,36,983.75